Flag for Egypt Weather past 2 weeks in Port Said, Egypt

Now
79 °F

Sunny.


Feels Like: 81 °F
Forecast: 74 / 82 °F
Wind: 9 mph from North

Location: Port Said Airport

Current Time: Jul 5, 2015 at 8:47:56 AM

Latest Report: Jul 5, 2015 at 8:00 AM


Visibility: 10 mi

Pressure: 29.92 "Hg

Humidity: 65%

Dew point: 66 °F

Location of Port SaidLocation

Historic Weather in Port Said — Graph

°F

Port Said temperature yesterday

Maximum temperature yesterday: 82 °F (at 2:00 PM)
Minimum temperature yesterday: 73 °F (at 12:00 AM)
Average temperature yesterday: 77 °F

Past Weeks' High & Low Weather Summary

 TemperatureHumidityPressure
High93 °F (Jun 27, 7:00 PM)83% (Jun 26, 2:00 AM)30.01 "Hg (Jun 26, 2:00 AM)
Low72 °F (Jul 5, 4:00 AM)24% (Jun 27, 1:00 PM)29.56 "Hg (Jun 27, 4:00 PM)
Average78 °F70%29.88 "Hg
* Reported Jun 20 9:00 AM — Jul 5 7:00 AM, Port Said, Weather by CustomWeather, © 2015

Note: Actual official high and low records may vary slightly from our data, if they occured in-between our weather recording intervals... More about our weather records

Advertising

Port Said weather history for previous 24 hours

 ConditionsComfort  
Time TempWeatherWind HumidityBarometerVisibility
7:00 AM
Sun, Jul 5
77 °FSunny.9 mph69%29.89 "Hg10 mi
6:00 AM75 °FSunny.8 mph74%29.89 "Hg10 mi
5:00 AM73 °FSunny.10 mph69%29.86 "Hg10 mi
4:00 AM72 °FClear.10 mph78%29.86 "Hg10 mi
3:00 AM73 °FClear.9 mph74%29.86 "Hg10 mi
2:00 AM73 °FClear.7 mph74%29.89 "Hg10 mi
1:00 AM73 °FClear.8 mph74%29.89 "Hg10 mi
12:00 AM73 °FClear.7 mph74%29.89 "Hg10 mi
11:00 PM
Sat, Jul 4
75 °FClear.8 mph69%29.89 "Hg10 mi
10:00 PM75 °FClear.10 mph69%29.89 "Hg10 mi
9:00 PM75 °FClear.9 mph74%29.89 "Hg10 mi
8:00 PM75 °FClear.12 mph69%29.89 "Hg10 mi
7:00 PM77 °FClear.8 mph69%29.89 "Hg10 mi
6:00 PM77 °FSunny.8 mph69%29.86 "Hg10 mi
5:00 PM77 °FSunny.12 mph69%29.89 "Hg10 mi
4:00 PM79 °FSunny.10 mph70%29.89 "Hg10 mi
3:00 PM81 °FSunny.10 mph70%29.89 "Hg10 mi
2:00 PM82 °FSunny.8 mph66%29.89 "Hg10 mi
1:00 PM81 °FScattered clouds.8 mph70%29.92 "HgN/A
12:00 PM81 °FScattered clouds.7 mph70%29.92 "HgN/A
11:00 AM81 °FScattered clouds.10 mph74%29.92 "HgN/A
10:00 AM79 °FScattered clouds.6 mph74%29.92 "HgN/A
9:00 AM79 °FScattered clouds.7 mph74%29.92 "HgN/A
8:00 AM79 °FScattered clouds.10 mph74%29.92 "HgN/A
Weather by CustomWeather, © 2015

See weather overviewHow to use our weather pages